SCP
0 0 0 0 0 -0 -0 0 -0 -0 -0 0 0 0 0 0 0 0 0 0 0 0
0 0 0 0 0 0 0 0 0 0 0 0 0 0 0 0 0 0 0 0 0 0
0 0 0 0 0 0 0 0 0 0 0 0 0 0 0 0 0 0 0 0 0 0
0 0 0 0 0 0 0 0 0 0 0 0 0 0 0 0 0 0 0 0 0 0
0 0 1 1 1 0 0 0 0 0 0 0 0 0 0 0 1 1 1 1 1 0
0 0 1 1 1 1 1 0 0 0 0 0 0 0 1 1 1 1 1 1 1 0
0 0 0 1 1 1 1 1 1 1 1 1 1 1 1 1 1 1 1 1 1 1
0 0 0 1 1 1 1 1 1 1 1 1 1 1 1 1 1 1 1 1 1 1
1 0 1 1 1 1 1 1 1 1 1 1 1 1 1 1 2 1 1 1 1 1
1 1 1 1 1 1 1 1 1 1 1 1 2 1 1 0 2 2 2 1 1 1
1 1 1 1 1 1 1 1 1 1 1 1 1 1 0 0 0 1 1 0 0 0
1 1 2 2 1 1 0 0 0 0 0 1 0 0 0 0 0 0 0 0 0 0
1 1 0 0 0 0 0 0 0 0 0 0 0 0 0 0 0 0 0 0 0 0
0 0 0 0 0 0 0 0 0 0 0 0 0 0 0 0 0 0 0 0 0 0
Wind_Speed_500mb
68 67 61 55 47 49 49 44 48 55 53 47 39 39 39 38 37 39 40 40 41 44
74 76 69 60 53 47 42 42 43 48 48 53 51 43 41 45 45 47 47 45 45 42
80 78 74 67 60 54 49 46 47 46 45 45 50 52 49 42 36 34 34 35 36 36
84 85 80 76 67 58 53 49 49 46 46 43 38 43 44 43 40 39 38 37 36 33
85 87 84 83 74 65 61 54 46 47 46 46 44 47 52 51 49 42 42 39 37 37
82 87 89 87 80 72 68 62 53 49 51 53 51 46 42 47 47 43 41 38 34 35
81 84 83 89 88 79 73 69 65 57 55 55 53 52 44 44 46 46 46 44 42 42
82 75 82 83 90 85 77 70 68 66 61 63 60 58 51 51 52 54 51 46 49 52
87 80 74 76 78 88 84 78 73 72 71 67 69 68 58 54 57 58 57 59 55 58
86 84 79 70 67 69 78 80 77 75 77 78 75 73 67 63 64 64 64 62 62 63
70 73 80 78 71 67 64 65 67 70 70 75 78 78 80 78 71 67 65 63 62 62
64 72 67 71 74 70 56 50 48 47 46 50 60 66 68 70 71 76 74 65 57 57
59 42 42 52 53 53 50 47 46 41 37 37 44 43 52 65 67 65 65 55 59 47
43 32 24 24 28 20 24 25 23 24 47 20 38 18 46 51 58 62 49 45 39 43
Wind_Direction_500mb
225 222 220 219 224 226 229 234 233 235 240 243 250 249 255 270 274 277 279 281 286 290
222 222 222 223 223 224 228 234 237 239 245 246 248 253 262 272 271 273 275 278 284 288
221 223 226 226 226 227 229 238 241 246 248 252 251 254 260 262 272 276 277 282 284 285
223 224 227 227 229 231 233 236 239 247 251 252 248 251 248 258 267 274 280 277 276 283
226 225 227 227 229 231 234 233 240 251 240 245 246 258 258 257 262 274 281 278 271 273
230 228 230 229 231 233 233 233 239 248 241 238 244 259 265 257 255 264 274 275 268 270
232 233 232 230 232 234 237 236 239 244 243 244 250 253 264 249 254 260 267 270 271 274
233 237 235 235 234 236 239 241 243 244 247 248 249 252 252 255 257 263 267 269 274 277
235 235 238 238 239 237 240 242 243 244 247 249 251 255 261 259 259 263 268 271 276 282
237 236 238 239 242 242 242 242 243 245 248 250 254 258 261 261 262 263 266 271 278 282
243 245 241 240 242 244 246 247 249 252 256 255 256 259 261 261 261 260 263 272 278 282
239 246 241 243 244 245 248 251 250 252 253 258 261 260 260 258 255 254 257 262 273 277
242 228 254 250 244 243 237 238 241 245 259 275 274 282 281 272 261 254 257 263 261 278
208 221 214 215 203 245 226 230 245 284 274 258 261 268 304 283 263 258 256 256 261 269
Wind_Speed_850mb
68 67 61 55 47 49 49 44 48 55 53 47 39 39 39 38 37 39 40 40 41 44
74 76 69 60 53 47 42 42 43 48 48 53 51 43 41 45 45 47 47 45 45 42
80 78 74 67 60 54 49 46 47 46 45 45 50 52 49 42 36 34 34 35 36 36
84 85 80 76 67 58 53 49 49 46 46 43 38 43 44 43 40 39 38 37 36 33
85 87 84 83 74 65 61 54 46 47 46 46 44 47 52 51 49 42 42 39 37 37
82 87 89 87 80 72 68 62 53 49 51 53 51 46 42 47 47 43 41 38 34 35
81 84 83 89 88 79 73 69 65 57 55 55 53 52 44 44 46 46 46 44 42 42
82 75 82 83 90 85 77 70 68 66 61 63 60 58 51 51 52 54 51 46 49 52
87 80 74 76 78 88 84 78 73 72 71 67 69 68 58 54 57 58 57 59 55 58
86 84 79 70 67 69 78 80 77 75 77 78 75 73 67 63 64 64 64 62 62 63
70 73 80 78 71 67 64 65 67 70 70 75 78 78 80 78 71 67 65 63 62 62
64 72 67 71 74 70 56 50 48 47 46 50 60 66 68 70 71 76 74 65 57 57
59 42 42 52 53 53 50 47 46 41 37 37 44 43 52 65 67 65 65 55 59 47
43 32 24 24 28 20 24 25 23 24 47 20 38 18 46 51 58 62 49 45 39 43
Wind_Direction_850mb
225 222 220 219 224 226 229 234 233 235 240 243 250 249 255 270 274 277 279 281 286 290
222 222 222 223 223 224 228 234 237 239 245 246 248 253 262 272 271 273 275 278 284 288
221 223 226 226 226 227 229 238 241 246 248 252 251 254 260 262 272 276 277 282 284 285
223 224 227 227 229 231 233 236 239 247 251 252 248 251 248 258 267 274 280 277 276 283
226 225 227 227 229 231 234 233 240 251 240 245 246 258 258 257 262 274 281 278 271 273
230 228 230 229 231 233 233 233 239 248 241 238 244 259 265 257 255 264 274 275 268 270
232 233 232 230 232 234 237 236 239 244 243 244 250 253 264 249 254 260 267 270 271 274
233 237 235 235 234 236 239 241 243 244 247 248 249 252 252 255 257 263 267 269 274 277
235 235 238 238 239 237 240 242 243 244 247 249 251 255 261 259 259 263 268 271 276 282
237 236 238 239 242 242 242 242 243 245 248 250 254 258 261 261 262 263 266 271 278 282
243 245 241 240 242 244 246 247 249 252 256 255 256 259 261 261 261 260 263 272 278 282
239 246 241 243 244 245 248 251 250 252 253 258 261 260 260 258 255 254 257 262 273 277
242 228 254 250 244 243 237 238 241 245 259 275 274 282 281 272 261 254 257 263 261 278
208 221 214 215 203 245 226 230 245 284 274 258 261 268 304 283 263 258 256 256 261 269